Regional Weather Roundup
Issued by NWS Little Rock, AR

Home | Current Version | Previous Version | Text Only | Print | Product List | Glossary Off
Versions: 1 2 3 4 5 6 7 8 9 10 11 12 13 14 15 16 17 18 19 20 21 22 23 24 25 26 27 28 29 30 31 32 33 34 35 36 37 38 39 40 41 42 43 44 45 46 47 48 49 50

484
ASUS44 KLZK 241305
RWRLZK

WEATHER ROUNDUP FOR ARKANSAS
NATIONAL WEATHER SERVICE LITTLE ROCK AR
800 AM CDT SUN JUL 24 2016

NOTE: "FAIR" INDICATES FEW OR NO CLOUDS BELOW 12,000 FEET WITH NO
SIGNIFICANT WEATHER AND/OR OBSTRUCTIONS TO VISIBILITY.

ARZ001-003-010-029-241400-
NORTHWEST ARKANSAS

CITY           SKY/WX    TMP DP  RH WIND       PRES   REMARKS
FAYETTEVILLE   SUNNY     77  74  90 S3        30.00R
FORT SMITH     SUNNY     80  72  76 E3        29.96R
HARRISON       SUNNY     76  72  87 CALM      30.01R
BENTONVILLE    SUNNY     81  70  69 SW3       30.02R
ROGERS         SUNNY     81  72  74 SW6       30.02R HX  85
SILOAM SPGS    SUNNY     79  66  65 SW6       30.01R
HIGHFILL       SUNNY     78  73  84 S3        30.00R
SPRINGDALE     SUNNY     81  72  74 CALM      30.02R
$$

ARZ004-005-016-241400-
NORTH CENTRAL ARKANSAS

CITY           SKY/WX    TMP DP  RH WIND       PRES   REMARKS
BATESVILLE     CLOUDY    79  72  78 SE3       29.97R
FLIPPIN        MOSUNNY   77  72  83 CALM      29.95S
MTN HOME       MOSUNNY   78  73  84 CALM      29.98R
$$

ARZ040-041-241400-
WEST CENTRAL ARKANSAS

CITY           SKY/WX    TMP DP  RH WIND       PRES   REMARKS
MENA           MOSUNNY   73  73 100 CALM      30.01S
MOUNT IDA      CLOUDY    76  74  93 CALM      29.97R
$$

ARZ009-017-025-026-028-241400-
NORTHEAST ARKANSAS

CITY           SKY/WX    TMP DP  RH WIND       PRES   REMARKS
CORNING          N/A     79  79 100 SE3       29.98R
JONESBORO      MOSUNNY   78  75  90 S10       29.97R
NEWPORT        PTSUNNY   79  75  87 S5        29.97R
WALNUT RIDGE   CLOUDY    79  73  83 SE6       29.97R
BLYTHEVILLE    SUNNY     80  75  84 SW5       29.98R HX  85
$$

ARZ022-023-033-042-044-241400-
CENTRAL ARKANSAS

CITY           SKY/WX    TMP DP  RH WIND       PRES   REMARKS
LITTLE ROCK    PTSUNNY   80  74  81 SW5       29.97R HX  85
N LITTLE ROCK    N/A     77  74  89 CALM      29.94R
JACKSONVILLE   CLOUDY    77  76  96 SE1       29.96R
SEARCY         CLOUDY    78  75  90 SE3       29.99R
HOT SPRINGS    CLOUDY    78  74  87 CALM      29.98R
RUSSELLVILLE   CLOUDY    79  74  84 CALM      29.96R
$$

ARZ036-241400-
EAST ARKANSAS

CITY           SKY/WX    TMP DP  RH WIND       PRES   REMARKS
WEST MEMPHIS   LGT RAIN  76  74  93 S9        29.98R
$$

ARZ050-053-066-070-073-241400-
SOUTHWEST ARKANSAS

CITY           SKY/WX    TMP DP  RH WIND       PRES   REMARKS
CAMDEN         SUNNY     75  70  83 CALM      29.98R
TEXARKANA      CLOUDY    76  74  93 CALM      29.98R
EL DORADO      SUNNY     77  73  87 CALM      29.98R
DE QUEEN       CLOUDY    73  73 100 CALM      29.97R FOG
$$

ARZ056-057-069-241400-
SOUTHEAST ARKANSAS

CITY           SKY/WX    TMP DP  RH WIND       PRES   REMARKS
PINE BLUFF     MOSUNNY   78  73  84 CALM      29.98R
STUTTGART      CLOUDY    79  70  73 S6        29.98R
MONTICELLO     MOSUNNY   78  74  87 CALM      29.98R

$$






USA.gov is the U.S. government's official web portal to all federal, state and local government web resources and services.